SCP
0 0 0 0 0 0 0 0 0 0 0 0 0 0 0 0 0 0 0 0 0 0 0 0 0 0 0 0 0 0 0 0 0 0 0 0 0 0 0 0 0 0 0 0
0 0 0 0 0 0 0 0 0 0 0 0 0 0 0 0 0 0 0 0 0 0 0 0 0 0 0 0 0 0 0 0 0 0 0 0 0 0 0 0 0 0 0 0
0 0 0 0 0 0 0 0 0 0 0 0 0 0 0 0 0 0 0 0 0 0 0 0 0 0 0 0 0 0 0 0 0 0 0 0 0 0 0 0 0 0 0 0
0 0 0 0 0 0 0 0 0 0 0 0 0 0 0 0 0 0 0 0 0 0 0 0 0 0 0 0 0 0 0 0 0 0 0 0 0 0 0 0 0 0 0 0
0 0 0 0 0 0 0 0 0 0 0 0 0 0 0 0 0 0 0 0 0 0 0 0 0 0 0 0 0 0 0 0 0 0 0 0 0 0 0 0 0 0 0 0
0 0 0 0 0 0 0 0 0 0 0 0 0 0 0 0 0 0 0 0 0 0 0 0 0 0 0 0 0 0 0 0 0 0 0 0 0 0 0 0 0 0 0 0
0 0 0 0 0 0 0 0 0 0 0 0 0 0 0 0 0 0 0 0 0 0 0 0 0 0 0 0 0 0 0 0 0 0 0 0 0 0 0 0 0 0 0 0
0 0 0 0 0 0 0 0 0 0 0 0 0 0 0 0 0 0 0 0 0 0 0 0 0 0 0 0 0 0 0 0 0 0 0 0 0 0 0 0 0 0 0 0
0 0 0 0 0 0 0 0 0 0 0 0 0 0 0 0 0 0 0 0 0 0 0 0 0 0 0 0 0 0 0 0 0 0 0 0 0 0 0 0 0 0 0 0
0 0 0 0 0 0 0 0 0 0 0 0 0 0 0 0 0 0 0 0 0 0 0 0 0 0 0 0 0 0 0 0 0 0 0 0 0 0 0 0 0 0 0 0
0 0 0 0 0 0 0 0 0 0 0 0 0 0 0 0 0 0 0 0 0 0 0 0 0 0 0 0 0 0 0 0 0 0 0 0 0 0 0 0 0 0 0 0
0 0 0 0 0 0 0 0 0 0 0 0 0 0 0 0 0 0 0 0 0 0 0 0 0 0 0 0 0 0 0 0 0 0 0 0 0 0 0 0 0 0 0 0
0 0 0 0 0 0 0 0 0 0 0 0 0 0 0 0 0 0 0 0 0 0 0 0 0 0 0 0 0 0 0 0 0 0 0 0 0 0 0 0 0 0 0 0
0 0 0 0 0 0 0 0 0 0 0 0 0 0 0 0 0 0 0 0 0 0 0 0 0 0 0 0 0 0 0 0 0 0 0 0 0 0 0 0 0 0 0 0
0 0 0 0 0 0 0 0 0 0 0 0 0 0 0 0 0 0 0 0 0 0 0 0 0 0 0 0 0 0 0 0 0 0 0 0 0 0 0 0 0 0 0 0
0 0 0 0 0 0 0 0 0 0 0 0 0 0 0 0 0 0 0 0 0 0 0 0 0 0 0 0 0 0 0 0 0 0 0 0 0 0 0 0 0 0 0 0
0 0 0 0 0 0 0 0 0 0 0 0 0 0 0 0 0 0 0 0 0 0 0 0 0 0 0 0 0 0 0 0 0 0 0 0 0 0 0 0 0 0 0 0
0 0 0 0 0 0 -0 -0 0 0 0 0 0 0 0 0 0 0 0 0 0 0 0 0 0 0 0 0 0 0 0 0 0 0 0 0 0 0 0 0 0 0 0 0
0 0 0 0 0 0 0 0 0 0 0 0 0 0 0 0 0 0 0 0 0 0 0 0 0 0 0 0 -0 -0 -0 0 0 0 0 0 0 0 0 0 0 0 0 0
0 0 0 0 0 0 0 0 0 0 0 0 0 0 0 0 0 0 0 0 0 0 0 0 0 0 0 -0 -0 -0 -0 -0 0 0 0 0 0 0 0 0 0 0 0 0
0 0 0 0 0 0 0 0 0 0 0 0 0 0 0 0 0 0 0 0 0 0 0 0 0 0 0 -0 -0 -0 -0 -0 -0 -0 0 0 0 0 0 0 0 0 0 0
0 0 0 0 0 0 0 0 0 0 0 0 0 0 0 0 0 0 0 0 0 0 0 0 0 0 0 -0 -0 -0 0 -0 -0 -0 -0 0 0 0 0 0 0 0 0 0
0 0 0 0 0 0 0 0 0 0 0 0 0 0 0 0 0 0 0 0 0 0 0 0 0 0 0 0 0 0 0 -0 -0 -0 -0 -0 0 0 0 0 0 0 0 0
0 0 0 0 0 0 0 0 0 0 0 0 0 0 0 0 0 0 0 0 0 0 0 0 0 0 0 0 0 0 0 -0 -0 -0 -0 -0 -0 0 0 0 0 0 0 0
0 0 0 0 0 0 0 0 0 0 0 0 0 0 0 0 0 0 0 0 0 0 0 0 0 0 0 0 0 0 0 -0 -0 -0 -0 0 0 0 0 0 0 0 0 0
0 0 0 0 0 0 0 0 0 0 0 0 0 0 0 0 0 0 0 0 0 0 0 0 0 0 0 0 0 0 0 -0 -0 -0 -0 0 0 0 0 0 0 0 0 0
Wind_Speed
3 4 9 15 17 12 6 8 12 14 10 5 13 19 19 18 15 15 15 17 19 20 23 18 13 10 10 11 14 17 18 17 14 13 13 13 14 13 12 11 12 13 12 12
3 9 16 8 3 5 7 10 15 14 10 7 14 21 15 16 19 20 19 20 21 19 19 19 13 8 10 12 14 15 18 18 18 17 15 8 8 7 8 7 8 11 11 12
12 8 7 7 6 7 9 11 13 13 8 6 11 14 11 13 15 17 18 18 19 19 20 20 16 8 6 10 12 14 17 18 19 14 8 5 4 3 6 8 10 11 12 13
9 6 4 6 9 11 13 13 14 12 8 7 3 16 8 12 11 14 19 16 16 17 16 15 13 10 7 10 10 13 14 16 16 15 14 17 15 15 15 11 11 11 13 14
9 5 6 9 12 12 13 6 7 7 6 7 4 13 11 8 9 14 17 16 15 14 10 9 9 9 9 7 8 10 11 14 15 17 18 18 16 11 6 6 11 11 11 12
8 4 7 10 7 8 5 2 2 3 1 10 9 13 13 8 11 9 11 12 12 9 8 8 7 7 7 5 4 4 7 10 12 15 16 18 17 12 11 10 13 11 9 10
6 5 6 5 3 2 4 3 4 5 3 12 5 9 12 9 8 8 8 9 8 6 7 9 10 10 9 6 4 3 5 7 9 13 15 16 15 14 16 14 14 13 10 11
6 10 8 7 9 7 7 9 8 7 8 9 3 13 11 7 5 6 7 8 8 8 7 7 9 8 8 6 4 4 5 6 8 11 12 11 11 10 10 12 12 14 13 13
6 9 3 3 5 8 6 8 8 6 7 13 13 12 10 4 7 8 8 7 7 8 8 8 9 8 7 6 5 5 6 6 7 9 10 10 11 11 11 10 10 10 9 10
1 9 6 3 1 2 6 4 3 5 6 12 15 16 14 5 8 6 5 6 7 8 9 10 10 10 9 7 5 3 4 6 7 8 10 10 11 12 10 9 12 12 11 11
5 8 9 4 9 10 6 5 6 6 6 8 10 16 6 1 3 6 8 9 11 12 13 14 14 13 13 12 10 8 6 5 6 7 8 10 10 10 10 11 13 12 12 14
8 8 12 11 9 9 11 13 12 11 13 10 12 17 10 9 9 10 11 12 13 14 15 16 16 17 18 18 16 14 11 9 8 7 8 10 9 9 11 13 13 13 14 15
6 7 9 7 4 1 4 5 6 8 9 12 16 13 9 12 13 13 13 14 14 16 17 17 17 17 17 17 16 15 14 13 11 9 9 9 10 11 14 15 13 13 14 14
8 9 13 16 12 6 8 8 7 9 11 14 15 17 17 17 16 13 12 12 12 14 16 17 16 16 15 15 14 15 15 13 14 13 10 10 11 12 14 12 12 13 14 15
3 9 12 16 15 13 15 17 17 19 20 20 22 23 11 7 10 11 10 10 13 14 15 16 16 15 15 16 16 15 15 14 15 15 13 12 11 10 10 11 11 12 14 15
3 5 5 10 15 14 18 21 23 23 22 20 21 13 6 5 7 10 9 10 13 13 12 13 14 14 14 15 16 16 15 15 14 14 14 13 11 9 9 10 10 11 13 12
4 4 4 8 9 8 13 13 14 10 4 4 5 2 3 5 9 10 8 8 10 11 11 11 12 12 12 13 13 14 14 14 13 13 13 13 12 11 9 8 9 11 12 12
8 7 5 5 3 13 8 2 1 2 3 5 5 2 4 7 8 8 6 6 9 9 10 10 10 12 12 12 12 13 13 13 13 13 13 13 13 13 10 8 9 10 9 12
14 9 5 4 7 10 3 1 2 2 4 5 4 5 7 7 7 6 7 5 6 8 8 8 8 10 11 11 12 13 14 13 13 13 13 13 14 15 13 10 9 8 9 11
3 9 8 7 6 8 6 5 5 3 5 7 7 7 7 4 5 7 5 5 7 8 8 8 8 9 10 11 11 13 14 14 14 14 15 14 13 14 14 13 10 8 8 10
2 1 6 8 7 9 6 5 1 2 5 8 9 10 9 8 9 9 9 8 8 9 10 9 9 10 10 10 11 14 14 14 14 15 16 16 14 13 13 13 9 7 7 7
5 4 5 4 4 10 6 2 5 9 7 7 9 10 11 12 12 11 11 11 10 10 11 10 9 12 11 9 10 14 15 14 14 15 17 17 17 14 11 12 10 8 8 9
8 9 7 10 10 8 7 10 11 8 9 10 10 11 11 11 12 12 12 12 12 11 11 9 9 13 13 9 9 14 16 13 15 16 18 18 18 16 13 12 11 8 8 9
8 6 7 9 13 13 14 14 13 11 13 13 12 10 9 11 12 12 12 13 12 12 11 9 10 13 16 11 10 11 14 13 14 17 18 17 17 17 15 11 10 10 10 10
11 7 8 14 15 13 14 15 14 13 12 10 8 7 8 9 12 12 12 13 13 15 13 10 11 15 17 14 14 11 11 12 16 18 18 17 16 16 15 13 11 12 12 13
11 12 14 17 15 12 10 9 8 9 8 6 6 7 6 7 11 12 13 14 14 15 14 14 15 17 17 16 17 13 9 11 16 18 17 14 13 13 13 14 13 20 20 22
Wind_Direction
133 132 205 216 208 217 235 252 259 260 267 257 249 256 260 270 271 263 260 263 265 268 268 270 260 237 220 211 204 202 199 197 185 187 189 191 199 196 197 197 192 187 180 175
99 228 227 227 193 232 255 268 270 274 267 254 266 268 262 254 256 259 259 260 262 263 274 276 270 242 221 214 208 205 203 196 193 197 196 193 184 193 196 189 184 183 178 175
202 228 223 218 223 229 235 231 250 257 296 295 290 279 233 245 245 257 259 256 260 263 269 278 283 278 244 229 214 210 207 200 199 191 172 147 132 116 172 191 191 187 182 180
237 254 200 191 218 210 252 231 242 266 292 280 267 290 222 226 243 254 259 260 259 262 265 272 289 299 263 237 219 213 207 201 194 182 182 182 191 197 196 191 189 183 184 184
238 216 189 208 223 198 232 248 242 253 250 274 197 265 275 190 230 247 252 257 260 264 274 292 299 296 282 251 226 214 203 199 192 189 192 193 202 205 175 165 175 180 185 186
256 236 205 215 230 209 222 12 353 52 82 270 200 225 279 178 207 232 247 252 261 282 311 311 312 310 306 305 271 229 206 202 192 192 194 198 201 188 172 177 182 184 183 187
275 243 237 195 215 184 150 133 335 321 275 256 197 229 260 233 222 215 240 262 279 301 316 320 324 327 325 321 295 239 211 208 194 195 201 204 204 195 193 187 186 184 183 192
279 279 230 204 196 187 183 164 185 229 251 278 233 244 253 248 268 272 270 276 296 308 313 312 311 314 312 308 281 238 218 213 199 202 208 207 203 203 204 195 191 191 194 196
236 264 286 197 198 154 163 205 205 217 267 284 268 267 289 258 280 273 278 298 306 312 314 311 312 317 314 310 279 233 219 218 209 209 209 210 206 209 209 199 194 196 193 185
248 280 272 290 102 230 202 199 132 181 222 252 269 272 271 270 255 282 321 328 319 318 319 323 333 338 343 338 318 283 247 236 225 216 215 218 214 212 207 194 200 199 191 182
188 250 275 243 210 214 191 192 202 211 209 224 254 264 243 304 355 342 332 325 328 338 348 353 355 359 1 1 357 343 319 288 263 240 232 231 225 216 208 206 206 200 192 186
198 226 258 248 230 212 212 216 209 228 238 229 244 260 292 323 343 351 354 1 5 6 6 7 8 9 9 6 2 356 345 327 301 274 249 238 232 217 214 217 211 201 197 193
189 226 260 271 267 199 238 244 239 257 262 254 258 266 304 330 356 15 24 20 17 16 13 10 9 7 3 0 358 355 349 340 330 309 277 255 238 225 224 223 214 205 201 196
264 237 247 261 270 282 266 271 273 268 264 267 264 280 299 322 342 0 19 20 16 13 8 3 359 356 353 351 350 348 345 342 336 326 304 277 254 238 233 227 216 209 203 200
311 261 261 269 278 284 284 282 278 271 269 272 280 282 303 344 346 348 1 12 13 8 1 356 350 346 344 344 344 343 340 340 337 330 319 302 283 259 243 230 220 211 207 206
343 286 296 280 279 281 280 274 270 270 268 266 268 270 54 348 344 344 347 357 356 352 347 343 340 338 338 339 337 336 336 335 332 330 324 315 306 285 259 240 223 214 211 206
235 235 258 265 284 313 266 254 257 253 277 307 281 59 348 334 334 324 313 326 330 332 331 331 331 331 329 327 327 328 327 327 327 327 325 324 317 304 284 259 231 219 212 204
219 213 224 260 308 248 247 60 83 133 109 100 107 182 264 272 281 276 256 289 313 318 319 319 321 322 321 319 321 322 322 323 324 324 325 328 325 315 301 277 249 232 216 210
220 214 206 215 234 264 253 241 169 181 208 179 184 235 255 268 284 267 245 273 292 296 298 302 304 308 311 313 319 321 320 321 321 322 323 325 324 317 307 288 265 242 223 217
208 207 217 218 230 244 222 218 223 167 247 214 216 243 255 270 285 276 267 279 288 289 289 292 295 301 304 308 316 317 316 318 318 320 318 316 314 309 303 291 274 250 229 222
329 239 221 231 242 262 234 229 166 196 252 218 232 248 246 231 239 261 281 285 276 279 284 288 292 296 297 303 311 310 309 311 313 315 313 311 307 301 295 289 274 250 230 218
211 224 224 183 217 258 230 196 215 231 241 240 247 246 241 242 253 263 271 275 275 278 281 283 287 290 293 296 300 300 301 308 312 311 309 307 306 300 291 281 270 247 225 217
218 205 197 196 220 238 214 231 247 249 259 264 258 249 239 249 260 266 270 275 278 278 280 282 282 289 292 292 291 293 301 312 311 307 304 303 302 297 286 272 262 245 224 219
237 217 230 251 257 259 261 262 262 256 257 262 256 247 240 250 263 271 276 280 283 285 285 285 285 288 290 294 294 292 303 310 306 301 299 298 297 294 286 269 252 238 226 220
230 211 231 252 262 262 258 257 258 259 256 254 251 244 249 260 272 279 282 284 286 289 290 290 288 289 291 297 295 298 305 307 299 294 292 291 288 286 284 271 253 242 233 223
231 232 244 256 257 254 262 259 261 259 258 261 272 283 285 283 287 291 288 288 291 292 296 296 295 293 294 298 296 298 295 290 288 289 288 286 286 285 283 280 271 253 245 239